Dades meteomassalio
Diari Summary for Juliol 28, 2017 Units:  Metric    English   Both
« Previous Day
Next Day »
Diari Semanal Mensual Anual Personalitzat
  Maxima: Minima: Mijana:
Temperatura: -17.8 °C -7.4 °C -2.7 °C
Rosada: -17.8 °C -10.3 °C -8.5 °C
Humitat: Humidity % 38 % 54 %
Velocitat del vent: 0 km/h 0 km/h 6.6 km/h
Racha vent: 0 km/h - -
Vent:- - SSE
Pressio: 0 hPa 34246 hPa -
Pluja: 0 mm    
Historical Graphs
 
 
Tabular Data for Juliol 28, 2017
Time Temperature Dew Point Pressure Wind Wind Speed Wind Gust Humidity Rainfall Rate (Hourly) solar Conditions
-17.8 °C -17.8 °C 0 hPa Calm     Humidity % 0 mm SolarRadiationWatts/m^2 W/m2 Conditions
00:03 -2.1 °C -10.3 °C 34246 hPa Calm     40 % 0 mm 0.0 W/m2 CLR
00:09 -2.2 °C -10.2 °C 34246 hPa Calm     41 % 0 mm 0.0 W/m2 CLR
00:14 -2.3 °C -10.1 °C 34246 hPa Calm     42 % 0 mm 0.0 W/m2 CLR
00:19 -2.3 °C -10.2 °C 34246 hPa Calm     42 % 0 mm 0.0 W/m2 CLR
00:24 -2.4 °C -10.1 °C 34246 hPa Calm     43 % 0 mm 0.0 W/m2 CLR
00:29 -2.4 °C -10.1 °C 34246 hPa Calm     43 % 0 mm 0.0 W/m2 CLR
00:34 -2.6 °C -9.9 °C 34246 hPa Calm     44 % 0 mm 0.0 W/m2 CLR
00:39 -2.7 °C -9.8 °C 34246 hPa Calm     45 % 0 mm 0.0 W/m2 CLR
00:44 -2.8 °C -10 °C 34246 hPa Calm     45 % 0 mm 0.0 W/m2 CLR
00:49 -2.9 °C -9.9 °C 34246 hPa Calm     46 % 0 mm 0.0 W/m2 CLR
00:54 -3 °C -10 °C 34246 hPa Calm     46 % 0 mm 0.0 W/m2 CLR
00:59 -2.9 °C -9.9 °C 34246 hPa SW 11.9 km/h 11.9 km/h 46 % 0 mm 0.0 W/m2 CLR
01:04 -2.9 °C -9.9 °C 34246 hPa Calm     46 % 0 mm 0.0 W/m2 CLR
01:09 -3 °C -9.8 °C 34246 hPa Calm     47 % 0 mm 0.0 W/m2 CLR
01:14 -3.1 °C -9.7 °C 34246 hPa Calm     48 % 0 mm 0.0 W/m2 CLR
01:19 -3.3 °C -9.9 °C 34246 hPa Calm     48 % 0 mm 0.0 W/m2 CLR
01:24 -3.4 °C -9.6 °C 34256.2 hPa Calm     50 % 0 mm 0.0 W/m2 CLR
01:29 -3.6 °C -9.8 °C 34256.2 hPa Calm     50 % 0 mm 0.0 W/m2 CLR
01:34 -3.7 °C -9.8 °C 34256.2 hPa Calm     51 % 0 mm 0.0 W/m2 CLR
01:39 -3.8 °C -9.7 °C 34256.2 hPa Calm     52 % 0 mm 0.0 W/m2 CLR
01:44 -4 °C -9.8 °C 34256.2 hPa Calm     52 % 0 mm 0.0 W/m2 CLR
01:49 -4.1 °C -9.7 °C 34256.2 hPa Calm     53 % 0 mm 0.0 W/m2 CLR
01:54 -4.2 °C -9.8 °C 34256.2 hPa Calm     53 % 0 mm 0.0 W/m2 CLR
01:59 -4.3 °C -9.9 °C 34269.7 hPa Calm     53 % 0 mm 0.0 W/m2 CLR
02:04 -4.3 °C -10.1 °C 34256.2 hPa Calm     52 % 0 mm 0.0 W/m2 CLR
02:09 -4.2 °C -9.9 °C 34256.2 hPa Calm     53 % 0 mm 0.0 W/m2 CLR
02:14 -4.3 °C -9.9 °C 34256.2 hPa Calm     53 % 0 mm 0.0 W/m2 CLR
02:19 -4.4 °C -9.9 °C 34269.7 hPa Calm     54 % 0 mm 0.0 W/m2 CLR
02:24 -4.5 °C -9.9 °C 34269.7 hPa Calm     54 % 0 mm 0.0 W/m2 CLR
02:29 -4.4 °C -9.9 °C 34269.7 hPa Calm     54 % 0 mm 0.0 W/m2 CLR
02:34 -4.4 °C -9.9 °C 34269.7 hPa Calm     54 % 0 mm 0.0 W/m2 CLR
02:39 -4.6 °C -9.9 °C 34279.9 hPa Calm     55 % 0 mm 0.0 W/m2 CLR
02:44 -4.6 °C -9.9 °C 34279.9 hPa Calm     55 % 0 mm 0.0 W/m2 CLR
02:49 -4.6 °C -9.9 °C 34279.9 hPa Calm     55 % 0 mm 0.0 W/m2 CLR
02:54 -4.4 °C -9.7 °C 34279.9 hPa NW 6 km/h 6 km/h 55 % 0 mm 0.0 W/m2 CLR
02:59 -4.2 °C -9.7 °C 34279.9 hPa Calm     54 % 0 mm 0.0 W/m2 CLR
03:04 -4.1 °C -9.7 °C 34279.9 hPa Calm     54 % 0 mm 0.0 W/m2 CLR
03:09 -4.1 °C -9.6 °C 34279.9 hPa WNW 5.1 km/h 5.1 km/h 54 % 0 mm 0.0 W/m2 CLR
03:14 -3.9 °C -9.4 °C 34279.9 hPa NNW 9 km/h 9 km/h 54 % 0 mm 0.0 W/m2 CLR
03:19 -3.9 °C -9.3 °C 34279.9 hPa WNW 10.3 km/h 10.3 km/h 55 % 0 mm 0.0 W/m2 CLR
03:24 -3.9 °C -9.2 °C 34279.9 hPa Calm     56 % 0 mm 0.0 W/m2 CLR
03:29 -4.1 °C -9.3 °C 34293.4 hPa Calm     56 % 0 mm 0.0 W/m2 CLR
03:34 -4.2 °C -9.2 °C 34279.9 hPa Calm     57 % 0 mm 0.0 W/m2 CLR
03:39 -4.2 °C -9.3 °C 34279.9 hPa Calm     57 % 0 mm 0.0 W/m2 CLR
03:44 -4.3 °C -9.2 °C 34279.9 hPa Calm     58 % 0 mm 0.0 W/m2 CLR
03:49 -4.4 °C -9.1 °C 34293.4 hPa Calm     59 % 0 mm 0.0 W/m2 CLR
03:54 -4.5 °C -9.1 °C 34293.4 hPa Calm     60 % 0 mm 0.0 W/m2 CLR
03:59 -4.5 °C -9.1 °C 34293.4 hPa Calm     60 % 0 mm 0.0 W/m2 CLR
04:04 -4.7 °C -9.6 °C 34293.4 hPa Calm     58 % 0 mm 0.0 W/m2 CLR
04:09 -4.9 °C -9.5 °C 34293.4 hPa Calm     60 % 0 mm 0.0 W/m2 CLR
04:14 -5.1 °C -9.6 °C 34293.4 hPa Calm     60 % 0 mm 0.0 W/m2 CLR
04:19 -5.3 °C -9.7 °C 34293.4 hPa Calm     61 % 0 mm 0.0 W/m2 CLR
04:24 -5.4 °C -9.7 °C 34293.4 hPa Calm     62 % 0 mm 0.0 W/m2 CLR
04:29 -5.6 °C -9.7 °C 34293.4 hPa Calm     63 % 0 mm 0.0 W/m2 CLR
04:34 -5.7 °C -9.7 °C 34303.6 hPa Calm     64 % 0 mm 0.0 W/m2 CLR
04:39 -5.9 °C -9.7 °C 34303.6 hPa Calm     65 % 0 mm 0.0 W/m2 CLR
04:44 -5.9 °C -9.7 °C 34303.6 hPa Calm     65 % 0 mm 0.0 W/m2 CLR
04:49 -5.9 °C -9.6 °C 34303.6 hPa Calm     66 % 0 mm 0.0 W/m2 CLR
04:54 -6 °C -9.7 °C 34303.6 hPa Calm     66 % 0 mm 0.0 W/m2 CLR
04:59 -6.1 °C -9.7 °C 34303.6 hPa Calm     67 % 0 mm 0.0 W/m2 CLR
05:04 -6.2 °C -9.7 °C 34303.6 hPa Calm     67 % 0 mm 0.0 W/m2 CLR
05:09 -6.3 °C -9.7 °C 34313.7 hPa Calm     68 % 0 mm 0.0 W/m2 CLR
05:14 -6.4 °C -9.7 °C 34313.7 hPa Calm     69 % 0 mm 0.0 W/m2 CLR
05:19 -6.4 °C -9.7 °C 34313.7 hPa Calm     69 % 0 mm 0.0 W/m2 CLR
05:24 -6.4 °C -9.7 °C 34313.7 hPa Calm     69 % 0 mm 0.0 W/m2 CLR
05:29 -6.5 °C -9.8 °C 34313.7 hPa Calm     69 % 0 mm 0.0 W/m2 CLR
05:34 -6.6 °C -9.7 °C 34313.7 hPa Calm     70 % 0 mm 0.0 W/m2 CLR
05:39 -6.6 °C -9.8 °C 34313.7 hPa Calm     70 % 0 mm 0.0 W/m2 CLR
05:44 -6.6 °C -9.8 °C 34313.7 hPa Calm     70 % 0 mm 0.0 W/m2 CLR
05:49 -6.6 °C -9.8 °C 34313.7 hPa Calm     70 % 0 mm 0.0 W/m2 CLR
05:55 -6.6 °C -9.8 °C 34313.7 hPa Calm     70 % 0 mm 0.0 W/m2 CLR
06:00 -6.7 °C -9.8 °C 34313.7 hPa Calm     70 % 0 mm 0.0 W/m2 CLR
06:05 -6.8 °C -9.8 °C 34327.3 hPa Calm     71 % 0 mm 0.0 W/m2 CLR
06:10 -6.8 °C -9.7 °C 34327.3 hPa Calm     72 % 0 mm 0.0 W/m2 CLR
06:15 -6.9 °C -9.7 °C 34327.3 hPa Calm     73 % 0 mm 0.0 W/m2 CLR
06:20 -6.9 °C -9.7 °C 34327.3 hPa Calm     73 % 0 mm 0.0 W/m2 CLR
06:25 -7 °C -9.8 °C 34327.3 hPa Calm     72 % 0 mm 0.0 W/m2 CLR
06:30 -7.1 °C -9.8 °C 34337.4 hPa Calm     73 % 0 mm 0.0 W/m2 CLR
06:35 -7.1 °C -9.8 °C 34337.4 hPa Calm     73 % 0 mm 0.0 W/m2 CLR
06:40 -7.1 °C -9.8 °C 34337.4 hPa Calm     74 % 0 mm 0.0 W/m2 CLR
06:45 -7.2 °C -9.8 °C 34337.4 hPa Calm     74 % 0 mm 0.0 W/m2 OVC
06:50 -7.2 °C -9.8 °C 34337.4 hPa Calm     74 % 0 mm 0.0 W/m2 OVC
06:55 -7.2 °C -9.8 °C 34337.4 hPa Calm     74 % 0 mm 5.0 W/m2 OVC
07:00 -7.3 °C -9.9 °C 34337.4 hPa Calm     74 % 0 mm 7.0 W/m2 BKN
07:05 -7.3 °C -9.9 °C 34337.4 hPa Calm     74 % 0 mm 11.0 W/m2 BKN
07:10 -7.3 °C -9.8 °C 34337.4 hPa Calm     75 % 0 mm 14.0 W/m2 BKN
07:15 -7.4 °C -9.9 °C 34347.6 hPa Calm     75 % 0 mm 16.0 W/m2 BKN
07:20 -7.4 °C -9.9 °C 34347.6 hPa Calm     75 % 0 mm 19.0 W/m2 BKN
07:25 -7.3 °C -9.8 °C 34347.6 hPa Calm     75 % 0 mm 25.0 W/m2 BKN
07:30 -7.3 °C -9.8 °C 34347.6 hPa Calm     75 % 0 mm 32.0 W/m2 BKN
07:35 -7.2 °C -9.8 °C 34347.6 hPa Calm     74 % 0 mm 35.0 W/m2 BKN
07:40 -7.1 °C -9.8 °C 34347.6 hPa Calm     74 % 0 mm 51.0 W/m2 SCT
07:45 -7.1 °C -9.7 °C 34347.6 hPa Calm     74 % 0 mm 60.0 W/m2 SCT
07:50 -6.9 °C -9.7 °C 34347.6 hPa Calm     73 % 0 mm 70.0 W/m2 FEW
07:55 -6.8 °C -9.6 °C 34347.6 hPa Calm     73 % 0 mm 86.0 W/m2 FEW
08:00 -6.7 °C -9.6 °C 34361.1 hPa Calm     72 % 0 mm 100.0 W/m2 FEW
08:05 -6.5 °C -9.6 °C 34361.1 hPa Calm     71 % 0 mm 118.0 W/m2 CLR
08:10 -6.3 °C -9.3 °C 34361.1 hPa Calm     71 % 0 mm 132.0 W/m2 CLR
08:15 -6.2 °C -9.3 °C 34361.1 hPa Calm     70 % 0 mm 148.0 W/m2 CLR
08:20 -6.1 °C -9.3 °C 34361.1 hPa Calm     69 % 0 mm 163.0 W/m2 CLR
08:25 -6 °C -9.3 °C 34361.1 hPa Calm     69 % 0 mm 179.0 W/m2 CLR
08:30 -5.8 °C -9.1 °C 34361.1 hPa Calm     69 % 0 mm 197.0 W/m2 CLR
08:35 -5.6 °C -9.1 °C 34361.1 hPa Calm     68 % 0 mm 213.0 W/m2 CLR
08:40 -5.4 °C -9 °C 34361.1 hPa Calm     67 % 0 mm 227.0 W/m2 CLR
08:45 -5.2 °C -8.9 °C 34371.3 hPa Calm     66 % 0 mm 241.0 W/m2 CLR
08:50 -4.9 °C -8.8 °C 34371.3 hPa Calm     65 % 0 mm 262.0 W/m2 CLR
08:55 -4.9 °C -8.8 °C 34361.1 hPa Calm     64 % 0 mm 276.0 W/m2 CLR
09:00 -4.8 °C -8.8 °C 34371.3 hPa West 3.1 km/h   64 % 0 mm 292.0 W/m2 CLR
09:05 -4.5 °C -8.8 °C 34361.1 hPa WNW 20.9 km/h 20.9 km/h 62 % 0 mm 308.0 W/m2 CLR
09:10 -4.3 °C -8.8 °C 34371.3 hPa NW 23.8 km/h 23.8 km/h 61 % 0 mm 322.0 W/m2 CLR
09:15 -4.3 °C -8.8 °C 34371.3 hPa NW 26.9 km/h 26.9 km/h 61 % 0 mm 338.0 W/m2 CLR
09:20 -4.3 °C -8.7 °C 34371.3 hPa NW 18.2 km/h 18.2 km/h 61 % 0 mm 353.0 W/m2 CLR
09:25 -4.2 °C -8.7 °C 34371.3 hPa WNW 20.9 km/h 20.9 km/h 61 % 0 mm 364.0 W/m2 CLR
09:31 -4.2 °C -8.6 °C 34371.3 hPa WNW 23.8 km/h 23.8 km/h 61 % 0 mm 380.0 W/m2 CLR
09:36 -4.1 °C -8.6 °C 34371.3 hPa West 20.9 km/h 20.9 km/h 61 % 0 mm 396.0 W/m2 CLR
09:38 -4.1 °C -8.6 °C 34371.3 hPa NW 25.9 km/h 25.9 km/h 61 % 0 mm 403.0 W/m2 CLR
09:43 -4.1 °C -8.7 °C 34371.3 hPa NW 17.9 km/h 17.9 km/h 60 % 0 mm 417.0 W/m2 CLR
09:48 -4 °C -8.6 °C 34371.3 hPa NNW 20.9 km/h 20.9 km/h 60 % 0 mm 429.0 W/m2 CLR
09:53 -4 °C -8.6 °C 34371.3 hPa Calm     60 % 0 mm 128.0 W/m2 CLR
09:58 -3.9 °C -8.7 °C 34371.3 hPa NNW 9 km/h   59 % 0 mm 162.0 W/m2 CLR
10:03 -3.8 °C -8.6 °C 34371.3 hPa Calm     59 % 0 mm 478.0 W/m2 CLR
10:08 -3.7 °C -8.6 °C 34371.3 hPa Calm     58 % 0 mm 490.0 W/m2 CLR
10:13 -3.5 °C -8.6 °C 34371.3 hPa WNW 17.9 km/h 17.9 km/h 57 % 0 mm 506.0 W/m2 CLR
10:18 -3.5 °C -8.6 °C 34371.3 hPa Calm     57 % 0 mm 524.0 W/m2 CLR
10:23 -3.4 °C -8.5 °C 34371.3 hPa NNW 20.9 km/h 20.9 km/h 57 % 0 mm 536.0 W/m2 CLR
10:28 -3.2 °C -8.7 °C 34371.3 hPa WSW 9 km/h 9 km/h 55 % 0 mm 550.0 W/m2 CLR
10:33 -3.2 °C -8.8 °C 34371.3 hPa SSW 9 km/h 9 km/h 54 % 0 mm 568.0 W/m2 CLR
10:38 -3.2 °C -8.6 °C 34371.3 hPa Calm     55 % 0 mm 580.0 W/m2 CLR
10:43 -3.1 °C -8.7 °C 34371.3 hPa Calm     54 % 0 mm 592.0 W/m2 CLR
10:48 -2.9 °C -8.5 °C 34371.3 hPa Calm     54 % 0 mm 608.0 W/m2 CLR
10:53 -2.8 °C -8.6 °C 34371.3 hPa WNW 11.9 km/h 11.9 km/h 53 % 0 mm 619.0 W/m2 CLR
10:58 -2.7 °C -8.5 °C 34361.1 hPa North 17.9 km/h 17.9 km/h 53 % 0 mm 635.0 W/m2 CLR
11:03 -2.7 °C -8.5 °C 34361.1 hPa NNW 15 km/h 15 km/h 53 % 0 mm 647.0 W/m2 CLR
11:08 -2.7 °C -8.6 °C 34361.1 hPa Calm     52 % 0 mm 657.0 W/m2 CLR
11:13 -2.4 °C -8.4 °C 34361.1 hPa WNW 11.9 km/h   52 % 0 mm 670.0 W/m2 CLR
11:18 -2.3 °C -8.6 °C 34371.3 hPa WSW 6 km/h   50 % 0 mm 682.0 W/m2 CLR
11:23 -2.2 °C -8.6 °C 34371.3 hPa SSW 9 km/h 9 km/h 50 % 0 mm 693.0 W/m2 CLR
11:28 -2.2 °C -8.7 °C 34371.3 hPa SSE 9 km/h 9 km/h 49 % 0 mm 707.0 W/m2 CLR
11:33 -2 °C -8.5 °C 34371.3 hPa Calm     49 % 0 mm 714.0 W/m2 CLR
11:34 -1.9 °C -8.4 °C 34371.3 hPa Calm     49 % 0 mm 717.0 W/m2 CLR
11:39 -1.8 °C -8.4 °C 34371.3 hPa Calm     49 % 0 mm 728.0 W/m2 CLR
11:44 -1.7 °C -8.4 °C 34371.3 hPa WNW 6 km/h 6 km/h 48 % 0 mm 740.0 W/m2 CLR
11:49 -1.7 °C -8.2 °C 34371.3 hPa East 17.9 km/h 17.9 km/h 49 % 0 mm 747.0 W/m2 CLR
11:54 -1.7 °C -8.4 °C 34371.3 hPa Calm     48 % 0 mm 754.0 W/m2 CLR
11:59 -1.6 °C -8.3 °C 34371.3 hPa Calm     48 % 0 mm 765.0 W/m2 CLR
12:04 -1.4 °C -8.4 °C 34371.3 hPa NNE 11.9 km/h 11.9 km/h 47 % 0 mm 775.0 W/m2 CLR
12:09 -1.4 °C -8.4 °C 34371.3 hPa Calm     47 % 0 mm 788.0 W/m2 CLR
12:14 -1.3 °C -8.3 °C 34371.3 hPa ENE 18.2 km/h 18.2 km/h 47 % 0 mm 796.0 W/m2 CLR
12:19 -1.3 °C -8.4 °C 34371.3 hPa ENE 11.9 km/h 11.9 km/h 46 % 0 mm 802.0 W/m2 CLR
12:24 -1.4 °C -8.4 °C 34371.3 hPa SE 9 km/h 9 km/h 47 % 0 mm 812.0 W/m2 CLR
12:29 -1.3 °C -8.2 °C 34371.3 hPa ENE 11.9 km/h 11.9 km/h 47 % 0 mm 817.0 W/m2 CLR
12:34 -1.3 °C -8.5 °C 34371.3 hPa East 12.9 km/h 12.9 km/h 46 % 0 mm 824.0 W/m2 CLR
12:39 -1.4 °C -8.4 °C 34361.1 hPa ESE 15 km/h 15 km/h 47 % 0 mm 831.0 W/m2 CLR
12:44 -1.3 °C -8.3 °C 34361.1 hPa ENE 15 km/h 15 km/h 47 % 0 mm 840.0 W/m2 CLR
12:49 -1.2 °C -8 °C 34361.1 hPa NE 15 km/h 15 km/h 48 % 0 mm 846.0 W/m2 CLR
12:54 -1.1 °C -8.2 °C 34361.1 hPa NNE 3.1 km/h   46 % 0 mm 851.0 W/m2 CLR
12:59 -1.1 °C -8.2 °C 34361.1 hPa East 11.9 km/h 11.9 km/h 46 % 0 mm 854.0 W/m2 CLR
13:04 -1 °C -8.2 °C 34361.1 hPa Calm     46 % 0 mm 858.0 W/m2 CLR
13:09 -1 °C -8.4 °C 34361.1 hPa ENE 3.1 km/h 3.1 km/h 45 % 0 mm 865.0 W/m2 CLR
13:14 -0.9 °C -8.5 °C 34361.1 hPa ESE 9 km/h 9 km/h 44 % 0 mm 874.0 W/m2 CLR
13:19 -0.9 °C -8.7 °C 34361.1 hPa Calm     43 % 0 mm 875.0 W/m2 CLR
13:24 -0.7 °C -8.7 °C 34361.1 hPa Calm     42 % 0 mm 882.0 W/m2 CLR
13:29 -0.5 °C -8.6 °C 34361.1 hPa NNE 15.6 km/h 15.6 km/h 42 % 0 mm 882.0 W/m2 CLR
13:34 -0.4 °C -8.6 °C 34361.1 hPa NE 9 km/h   41 % 0 mm 888.0 W/m2 CLR
13:39 -0.3 °C -8.6 °C 34361.1 hPa North 17.9 km/h 17.9 km/h 41 % 0 mm 889.0 W/m2 CLR
13:40 -0.3 °C -8.6 °C 34361.1 hPa North 9 km/h   41 % 0 mm 891.0 W/m2 CLR
13:45 -0.2 °C -8.5 °C 34361.1 hPa East 9 km/h 9 km/h 41 % 0 mm 891.0 W/m2 CLR
13:50 -0.3 °C -8.3 °C 34361.1 hPa ENE 9 km/h 9 km/h 42 % 0 mm 896.0 W/m2 CLR
13:55 -0.3 °C -8.3 °C 34347.6 hPa Calm     42 % 0 mm 895.0 W/m2 CLR
14:00 -0.2 °C -8.2 °C 34347.6 hPa North 15 km/h 15 km/h 42 % 0 mm 898.0 W/m2 CLR
14:05 -0.1 °C -8.4 °C 34347.6 hPa ENE 15 km/h 15 km/h 41 % 0 mm 900.0 W/m2 CLR
14:10 -0.2 °C -8.4 °C 34347.6 hPa Calm     41 % 0 mm 898.0 W/m2 CLR
14:15 -0.2 °C -8.4 °C 34337.4 hPa Calm     41 % 0 mm 898.0 W/m2 CLR
14:20 -0.2 °C -8.5 °C 34337.4 hPa Calm     41 % 0 mm 898.0 W/m2 CLR
14:25 -0.2 °C -8.4 °C 34337.4 hPa ESE 11.9 km/h 11.9 km/h 41 % 0 mm 893.0 W/m2 CLR
14:30 -0.2 °C -8.2 °C 34337.4 hPa Calm     42 % 0 mm 895.0 W/m2 CLR
14:35 0.1 °C -8.2 °C 34327.3 hPa NNW 9 km/h 9 km/h 41 % 0 mm 893.0 W/m2 CLR
14:40 0.2 °C -8.3 °C 34327.3 hPa NE 11.9 km/h 11.9 km/h 40 % 0 mm 895.0 W/m2 CLR
14:45 0.4 °C -8.2 °C 34327.3 hPa Calm     40 % 0 mm 888.0 W/m2 CLR
14:50 0.5 °C -8.3 °C 34327.3 hPa Calm     39 % 0 mm 882.0 W/m2 CLR
14:55 0.7 °C -8.1 °C 34327.3 hPa NNE 15 km/h 15 km/h 39 % 0 mm 886.0 W/m2 CLR
15:00 0.7 °C -8.1 °C 34313.7 hPa Calm     39 % 0 mm 874.0 W/m2 CLR
15:05 0.8 °C -8 °C 34313.7 hPa NE 23.8 km/h 23.8 km/h 39 % 0 mm 867.0 W/m2 CLR
15:10 0.8 °C -8.2 °C 34313.7 hPa NE 11.9 km/h 11.9 km/h 38 % 0 mm 863.0 W/m2 CLR
15:15 0.9 °C -8.1 °C 34313.7 hPa NNE 6 km/h   38 % 0 mm 860.0 W/m2 CLR
15:20 0.9 °C -8.1 °C 34313.7 hPa ENE 9 km/h 9 km/h 38 % 0 mm 856.0 W/m2 CLR
15:25 1 °C -7.8 °C 34313.7 hPa NNE 11.9 km/h 11.9 km/h 39 % 0 mm 844.0 W/m2 CLR
15:30 0.9 °C -8.1 °C 34313.7 hPa Calm     38 % 0 mm 837.0 W/m2 CLR
15:35 1 °C -8 °C 34303.6 hPa Calm     38 % 0 mm 830.0 W/m2 CLR
15:40 1.2 °C -7.4 °C 34303.6 hPa NE 17.9 km/h 17.9 km/h 40 % 0 mm 830.0 W/m2 CLR
15:45 1.2 °C -7.4 °C 34303.6 hPa ENE 17.9 km/h 17.9 km/h 40 % 0 mm 810.0 W/m2 CLR
15:50 1.2 °C -7.2 °C 34303.6 hPa NE 23.8 km/h 23.8 km/h 41 % 0 mm 795.0 W/m2 CLR
15:55 1.2 °C -7.2 °C 34303.6 hPa ENE 6 km/h   41 % 0 mm 798.0 W/m2 CLR
16:00 1.2 °C -6.9 °C 34303.6 hPa Calm   0.8 km/h 42 % 0 mm 773.0 W/m2 CLR
16:05 1.3 °C -7.1 °C 34293.4 hPa NE 9 km/h 9 km/h 41 % 0 mm 768.0 W/m2 CLR
16:10 1.4 °C -7 °C 34293.4 hPa NE 15 km/h 15 km/h 41 % 0 mm 759.0 W/m2 CLR
16:15 1.5 °C -7.2 °C 34293.4 hPa NNE 26.9 km/h 26.9 km/h 40 % 0 mm 747.0 W/m2 CLR
16:20 1.5 °C -7.2 °C 34293.4 hPa NNE 9 km/h 9 km/h 40 % 0 mm 745.0 W/m2 CLR
16:25 1.4 °C -6.8 °C 34293.4 hPa ESE 23.8 km/h 23.8 km/h 42 % 0 mm 724.0 W/m2 CLR
16:30 1.3 °C -6.9 °C 34293.4 hPa SE 15 km/h 15 km/h 42 % 0 mm 714.0 W/m2 CLR
16:35 1.3 °C -6.9 °C 34293.4 hPa ENE 23.8 km/h 23.8 km/h 42 % 0 mm 714.0 W/m2 CLR
16:41 1.1 °C -7.1 °C 34279.9 hPa ESE 15 km/h 15 km/h 42 % 0 mm 700.0 W/m2 CLR
16:46 1 °C -7.2 °C 34279.9 hPa South 17.9 km/h 17.9 km/h 42 % 0 mm 687.0 W/m2 CLR
16:51 0.9 °C -7.1 °C 34279.9 hPa SSE 17.9 km/h 17.9 km/h 43 % 0 mm 680.0 W/m2 CLR
16:56 0.9 °C -6.8 °C 34279.9 hPa East 20.9 km/h 20.9 km/h 44 % 0 mm 661.0 W/m2 CLR
17:01 1 °C -6.8 °C 34279.9 hPa ESE 12.9 km/h 12.9 km/h 44 % 0 mm 650.0 W/m2 CLR
17:06 1.1 °C -7.1 °C 34279.9 hPa East 20.9 km/h 20.9 km/h 42 % 0 mm 636.0 W/m2 CLR
17:11 1.2 °C -6.6 °C 34279.9 hPa ENE 26.9 km/h 26.9 km/h 44 % 0 mm 624.0 W/m2 CLR
17:16 1.2 °C -6.6 °C 34279.9 hPa ENE 23.8 km/h 23.8 km/h 44 % 0 mm 619.0 W/m2 CLR
17:21 1.1 °C -6.7 °C 34279.9 hPa Calm     44 % 0 mm 598.0 W/m2 CLR
17:26 1.2 °C -6.6 °C 34279.9 hPa East 15 km/h 15 km/h 44 % 0 mm 582.0 W/m2 CLR
17:31 1.2 °C -6.6 °C 34269.7 hPa ESE 12.9 km/h 12.9 km/h 44 % 0 mm 571.0 W/m2 CLR
17:36 1.2 °C -6.8 °C 34269.7 hPa Calm     43 % 0 mm 559.0 W/m2 CLR
17:41 1.2 °C -6.8 °C 34269.7 hPa ENE 17.9 km/h 17.9 km/h 43 % 0 mm 547.0 W/m2 CLR
17:51 0.9 °C -6.8 °C 34269.7 hPa East 23.3 km/h 23.3 km/h 44 % 0 mm 520.0 W/m2 CLR
17:56 0.9 °C -6.8 °C 34269.7 hPa ENE 29.8 km/h 29.8 km/h 44 % 0 mm 499.0 W/m2 CLR
18:01 0.9 °C -6.6 °C 34269.7 hPa ESE 17.9 km/h 17.9 km/h 45 % 0 mm 489.0 W/m2 CLR
18:06 0.8 °C -6.8 °C 34269.7 hPa ESE 26.9 km/h 26.9 km/h 45 % 0 mm 476.0 W/m2 CLR
18:16 0.7 °C -6.8 °C 34269.7 hPa ESE 18.2 km/h 18.2 km/h 45 % 0 mm 452.0 W/m2 CLR
18:21 0.7 °C -7.1 °C 34269.7 hPa East 23.8 km/h 23.8 km/h 44 % 0 mm 432.0 W/m2 CLR
18:26 0.7 °C -7.1 °C 34269.7 hPa East 20.9 km/h 20.9 km/h 44 % 0 mm 417.0 W/m2 CLR
18:31 0.5 °C -7.2 °C 34269.7 hPa SE 26.9 km/h 26.9 km/h 44 % 0 mm 401.0 W/m2 CLR
18:36 0.4 °C -7.3 °C 34269.7 hPa ESE 26.9 km/h 26.9 km/h 44 % 0 mm 388.0 W/m2 CLR
18:41 0.3 °C -7.2 °C 34269.7 hPa ESE 23.8 km/h 23.8 km/h 45 % 0 mm 371.0 W/m2 CLR
18:46 0.3 °C -7.2 °C 34269.7 hPa SE 26.9 km/h 26.9 km/h 45 % 0 mm 357.0 W/m2 CLR
18:51 0.3 °C -7.2 °C 34269.7 hPa ESE 26.9 km/h 26.9 km/h 45 % 0 mm 343.0 W/m2 CLR
18:56 0.2 °C -7.1 °C 34269.7 hPa ESE 20.9 km/h 20.9 km/h 46 % 0 mm 329.0 W/m2 CLR
19:02 0.2 °C -7.1 °C 34269.7 hPa ESE 20.9 km/h 20.9 km/h 46 % 0 mm 315.0 W/m2 CLR
19:07 0.1 °C -6.9 °C 34279.9 hPa ESE 20.9 km/h 20.9 km/h 47 % 0 mm 297.0 W/m2 CLR
19:12 0.1 °C -7 °C 34269.7 hPa ESE 23.8 km/h 23.8 km/h 47 % 0 mm 287.0 W/m2 CLR
19:17 -0.1 °C -7.1 °C 34269.7 hPa ESE 23.8 km/h 23.8 km/h 47 % 0 mm 272.0 W/m2 CLR
19:22 -0.1 °C -7 °C 34269.7 hPa SE 15 km/h 15 km/h 48 % 0 mm 257.0 W/m2 CLR
19:27 -0.1 °C -7.3 °C 34269.7 hPa ESE 20.9 km/h 20.9 km/h 46 % 0 mm 236.0 W/m2 CLR
19:32 -0.1 °C -6.9 °C 34269.7 hPa SE 20.9 km/h 20.9 km/h 48 % 0 mm 221.0 W/m2 CLR
19:37 -0.1 °C -7.4 °C 34269.7 hPa ESE 20.9 km/h 20.9 km/h 46 % 0 mm 207.0 W/m2 CLR
19:42 -0.2 °C -7.3 °C 34269.7 hPa East 20.9 km/h 20.9 km/h 47 % 0 mm 193.0 W/m2 CLR
19:47 -0.3 °C -7.3 °C 34269.7 hPa ESE 15 km/h 15 km/h 47 % 0 mm 176.0 W/m2 CLR
19:52 -0.3 °C -7.2 °C 34269.7 hPa East 17.9 km/h 17.9 km/h 48 % 0 mm 163.0 W/m2 CLR
19:57 -0.4 °C -7.1 °C 34269.7 hPa SE 10.3 km/h 10.3 km/h 49 % 0 mm 148.0 W/m2 CLR
20:02 -0.4 °C -7.1 °C 34269.7 hPa SE 20.9 km/h 20.9 km/h 49 % 0 mm 134.0 W/m2 CLR
20:07 -0.6 °C -6.9 °C 34269.7 hPa SE 23.8 km/h 23.8 km/h 51 % 0 mm 116.0 W/m2 CLR
20:17 -0.8 °C -7.1 °C 34269.7 hPa SE 20.9 km/h 20.9 km/h 51 % 0 mm 91.0 W/m2 CLR
20:22 -0.9 °C -7.3 °C 34269.7 hPa SE 17.9 km/h 17.9 km/h 50 % 0 mm 79.0 W/m2 FEW
20:27 -0.9 °C -7.2 °C 34269.7 hPa ESE 17.9 km/h 17.9 km/h 51 % 0 mm 69.0 W/m2 FEW
20:32 -0.9 °C -7 °C 34269.7 hPa Calm     52 % 0 mm 56.0 W/m2 SCT
20:37 -0.9 °C -7.4 °C 34269.7 hPa SE 15 km/h 15 km/h 50 % 0 mm 40.0 W/m2 BKN
20:42 -0.9 °C -7.2 °C 34269.7 hPa Calm     51 % 0 mm 35.0 W/m2 BKN
20:47 -0.9 °C -7.4 °C 34279.9 hPa Calm     50 % 0 mm 28.0 W/m2 BKN
20:52 -1 °C -7.3 °C 34279.9 hPa ESE 15.6 km/h 15.6 km/h 51 % 0 mm 23.0 W/m2 BKN
20:57 -1.2 °C -7.1 °C 34279.9 hPa ESE 11.9 km/h 11.9 km/h 53 % 0 mm 19.0 W/m2 BKN
21:02 -1.3 °C -7.1 °C 34279.9 hPa Calm     54 % 0 mm 14.0 W/m2 BKN
21:07 -1.4 °C -7.3 °C 34279.9 hPa SSE 15 km/h 15 km/h 53 % 0 mm 11.0 W/m2 BKN
21:12 -1.4 °C -7.3 °C 34279.9 hPa SE 11.9 km/h 11.9 km/h 53 % 0 mm 7.0 W/m2 BKN
21:17 -1.4 °C -7.3 °C 34279.9 hPa SE 9 km/h 9 km/h 53 % 0 mm 5.0 W/m2 OVC
21:22 -1.5 °C -7.2 °C 34279.9 hPa Calm     54 % 0 mm 0.0 W/m2 OVC
21:23 -1.5 °C -7.2 °C 34279.9 hPa Calm     54 % 0 mm 0.0 W/m2 OVC
21:28 -1.6 °C -7.3 °C 34279.9 hPa Calm     54 % 0 mm 0.0 W/m2 OVC
21:33 -1.7 °C -7.2 °C 34279.9 hPa Calm     55 % 0 mm 0.0 W/m2 CLR
21:38 -1.8 °C -7.2 °C 34279.9 hPa Calm     56 % 0 mm 0.0 W/m2 CLR
21:43 -1.9 °C -7.1 °C 34279.9 hPa Calm     57 % 0 mm 0.0 W/m2 CLR
21:48 -2 °C -7.2 °C 34293.4 hPa Calm     57 % 0 mm 0.0 W/m2 CLR
21:53 -2.1 °C -7.2 °C 34293.4 hPa Calm     58 % 0 mm 0.0 W/m2 CLR
21:58 -2.2 °C -7.3 °C 34293.4 hPa Calm     58 % 0 mm 0.0 W/m2 CLR
22:03 -2.3 °C -7.3 °C 34293.4 hPa Calm     58 % 0 mm 0.0 W/m2 CLR
22:08 -2.3 °C -7.3 °C 34293.4 hPa Calm     58 % 0 mm 0.0 W/m2 CLR
22:13 -2.4 °C -7.4 °C 34303.6 hPa Calm     58 % 0 mm 0.0 W/m2 CLR
22:18 -2.4 °C -7.3 °C 34303.6 hPa ESE 6 km/h   59 % 0 mm 0.0 W/m2 CLR
22:23 -2.4 °C -7.4 °C 34303.6 hPa Calm   0.3 km/h 58 % 0 mm 0.0 W/m2 CLR
22:29 -2.4 °C -7.4 °C 34303.6 hPa Calm     58 % 0 mm 0.0 W/m2 CLR
22:34 -2.5 °C -7.5 °C 34303.6 hPa Calm     58 % 0 mm 0.0 W/m2 CLR
22:39 -2.6 °C -7.4 °C 34313.7 hPa Calm     59 % 0 mm 0.0 W/m2 CLR
22:44 -2.7 °C -7.3 °C 34313.7 hPa Calm     60 % 0 mm 0.0 W/m2 CLR
22:49 -2.7 °C -7.3 °C 34313.7 hPa Calm     61 % 0 mm 0.0 W/m2 CLR
22:54 -2.8 °C -7.3 °C 34303.6 hPa Calm     61 % 0 mm 0.0 W/m2 CLR
22:59 -2.9 °C -7.3 °C 34313.7 hPa Calm     62 % 0 mm 0.0 W/m2 CLR
23:04 -3 °C -7.2 °C 34313.7 hPa Calm     63 % 0 mm 0.0 W/m2 CLR
23:09 -3.1 °C -7.3 °C 34313.7 hPa Calm     63 % 0 mm 0.0 W/m2 CLR
23:14 -3.2 °C -7.2 °C 34313.7 hPa Calm     64 % 0 mm 0.0 W/m2 CLR
23:19 -3.2 °C -7.2 °C 34313.7 hPa Calm     65 % 0 mm 0.0 W/m2 CLR
23:24 -3.3 °C -7.1 °C 34313.7 hPa Calm     66 % 0 mm 0.0 W/m2 CLR
23:29 -3.3 °C -7.1 °C 34313.7 hPa Calm     66 % 0 mm 0.0 W/m2 CLR
23:34 -3.3 °C -7.1 °C 34313.7 hPa Calm     66 % 0 mm 0.0 W/m2 CLR
23:39 -3.4 °C -7.1 °C 34327.3 hPa Calm     67 % 0 mm 0.0 W/m2 CLR
23:44 -3.6 °C -7 °C 34313.7 hPa Calm     69 % 0 mm 0.0 W/m2 CLR
23:49 -3.7 °C -7.1 °C 34313.7 hPa Calm     69 % 0 mm 0.0 W/m2 CLR
23:54 -3.7 °C -7 °C 34313.7 hPa Calm     70 % 0 mm 0.0 W/m2 CLR
23:59 -3.8 °C -7.1 °C 34327.3 hPa Calm     70 % 0 mm 0.0 W/m2 CLR
Lo Temps de Massalio
Compliments of Weather Underground - 1.25 mb